Location: Unspecified
(0.0000°N, 0.0000°E)
Time: 21:04:11
(UTC+00:00)

S-56A Canister/Altair - Pass Details

Date: 07 October 2020
Orbit: 632 x 2500 km, 38.9° (Epoch: 20 October)

Event Time Altitude Azimuth Distance (km) Brightness Sun altitude
Rises 18:48:19 0° 323° (NW) 5,862 12.5 -15.1°
Reaches altitude 10° 18:52:52 10° 329° (NNW) 4,636 11.8 -16.2°
Maximum altitude 19:04:05 41° 35° (NE) 2,233 9.5 -19.0°
Enters shadow 19:07:56 29° 80° (E) 2,402 9.4 -20.0°
